Total_Precipitation_Accumulation
0.43 0.60 0.61 0.52 0.57 0.65 0.54 0.43 0.43 0.43 0.32 0.34 0.30 0.23 0.21 0.18 0.13 0.10 0.09 0.10 0.12 0.11 0.07 0.05 0.06 0.09 0.16 0.16 0.15 0.18 0.24 0.31 0.29 0.26 0.33 0.44 0.53 0.67 0.81 0.97 1.04 1.27 1.38 1.28
0.49 0.42 0.32 0.37 0.44 0.52 0.50 0.46 0.39 0.33 0.30 0.28 0.25 0.22 0.19 0.13 0.10 0.08 0.08 0.08 0.08 0.08 0.06 0.05 0.04 0.04 0.06 0.09 0.09 0.12 0.16 0.25 0.32 0.36 0.41 0.53 0.71 0.83 0.93 1.06 1.13 1.24 1.26 1.26
0.36 0.30 0.28 0.33 0.35 0.42 0.43 0.47 0.36 0.30 0.30 0.27 0.26 0.24 0.15 0.11 0.10 0.09 0.08 0.08 0.08 0.06 0.06 0.07 0.06 0.06 0.04 0.05 0.07 0.12 0.20 0.33 0.50 0.66 0.88 1.13 1.41 1.53 1.42 1.27 1.34 1.47 1.53 1.49
0.47 0.33 0.29 0.31 0.33 0.36 0.44 0.31 0.25 0.24 0.31 0.26 0.19 0.21 0.13 0.12 0.13 0.13 0.13 0.11 0.12 0.10 0.09 0.08 0.07 0.07 0.09 0.12 0.19 0.29 0.41 0.57 0.74 0.95 1.17 1.43 1.66 1.82 1.84 1.86 1.89 1.87 1.82 1.70
0.50 0.33 0.30 0.32 0.27 0.29 0.36 0.29 0.25 0.25 0.28 0.20 0.15 0.14 0.13 0.16 0.22 0.26 0.27 0.27 0.25 0.21 0.21 0.20 0.18 0.17 0.19 0.29 0.42 0.53 0.76 0.93 1.07 1.13 1.23 1.45 1.56 1.63 1.74 1.88 1.93 1.93 1.84 1.71
0.42 0.30 0.28 0.28 0.23 0.24 0.32 0.33 0.32 0.32 0.31 0.23 0.14 0.14 0.22 0.29 0.36 0.42 0.42 0.38 0.34 0.28 0.25 0.28 0.31 0.32 0.36 0.58 0.81 0.96 1.07 1.16 1.16 1.14 1.16 1.30 1.44 1.52 1.60 1.73 1.79 1.73 1.59 1.54
0.38 0.31 0.25 0.25 0.27 0.26 0.31 0.37 0.40 0.40 0.33 0.24 0.12 0.18 0.31 0.32 0.30 0.33 0.35 0.34 0.31 0.24 0.20 0.25 0.34 0.47 0.66 0.91 1.14 1.29 1.28 1.18 1.05 1.03 1.09 1.15 1.30 1.44 1.48 1.49 1.51 1.45 1.38 1.34
0.27 0.29 0.23 0.20 0.21 0.22 0.27 0.27 0.33 0.36 0.29 0.21 0.18 0.32 0.42 0.33 0.23 0.19 0.19 0.19 0.21 0.26 0.31 0.32 0.39 0.58 0.86 1.13 1.37 1.64 1.62 1.38 1.16 1.11 1.17 1.19 1.27 1.33 1.31 1.25 1.26 1.26 1.22 1.17
0.20 0.19 0.18 0.19 0.19 0.19 0.23 0.22 0.21 0.29 0.23 0.16 0.17 0.29 0.32 0.22 0.16 0.14 0.16 0.19 0.25 0.32 0.41 0.50 0.62 0.71 0.92 1.14 1.48 1.76 1.82 1.62 1.46 1.37 1.31 1.31 1.21 1.12 1.05 0.97 0.96 0.99 1.00 0.94
0.18 0.16 0.17 0.17 0.21 0.18 0.18 0.20 0.20 0.29 0.28 0.22 0.19 0.26 0.21 0.13 0.11 0.14 0.21 0.25 0.30 0.38 0.43 0.58 0.84 1.05 1.28 1.23 1.37 1.61 1.54 1.48 1.46 1.47 1.46 1.35 1.20 1.07 1.03 0.95 0.92 0.89 0.94 0.85
0.13 0.14 0.16 0.17 0.17 0.14 0.15 0.17 0.17 0.22 0.24 0.26 0.33 0.35 0.23 0.19 0.20 0.26 0.33 0.35 0.39 0.46 0.51 0.65 0.82 0.97 1.16 1.27 1.29 1.33 1.32 1.33 1.29 1.22 1.18 1.06 0.86 0.75 0.76 0.77 0.73 0.68 0.71 0.66
0.09 0.12 0.13 0.12 0.12 0.13 0.18 0.20 0.20 0.28 0.31 0.33 0.47 0.52 0.33 0.34 0.38 0.46 0.52 0.55 0.59 0.59 0.62 0.72 0.80 0.95 1.04 1.05 1.10 1.17 1.10 1.09 1.04 0.93 0.84 0.72 0.57 0.51 0.56 0.57 0.52 0.45 0.47 0.44
0.08 0.11 0.12 0.12 0.12 0.16 0.31 0.38 0.27 0.23 0.31 0.44 0.57 0.57 0.49 0.51 0.58 0.68 0.77 0.76 0.71 0.65 0.63 0.68 0.71 0.81 0.88 0.92 0.99 1.07 1.02 1.03 1.02 0.87 0.72 0.64 0.57 0.54 0.53 0.47 0.40 0.32 0.31 0.34
0.06 0.10 0.08 0.08 0.08 0.15 0.33 0.44 0.34 0.28 0.41 0.46 0.51 0.60 0.63 0.70 0.80 0.82 0.82 0.77 0.64 0.53 0.45 0.42 0.40 0.48 0.55 0.61 0.71 0.81 0.78 0.96 1.11 1.05 0.84 0.72 0.67 0.56 0.47 0.37 0.34 0.29 0.32 0.36
0.05 0.07 0.05 0.03 0.03 0.07 0.17 0.26 0.24 0.26 0.32 0.36 0.39 0.49 0.62 0.71 0.78 0.77 0.67 0.50 0.37 0.28 0.22 0.19 0.17 0.22 0.29 0.39 0.45 0.53 0.66 0.85 0.89 0.73 0.54 0.46 0.44 0.39 0.31 0.25 0.23 0.22 0.22 0.22
0.04 0.05 0.04 0.03 0.02 0.02 0.04 0.06 0.06 0.08 0.12 0.17 0.25 0.40 0.50 0.53 0.52 0.47 0.37 0.23 0.16 0.13 0.09 0.07 0.06 0.07 0.10 0.13 0.20 0.31 0.40 0.45 0.43 0.36 0.29 0.25 0.21 0.18 0.16 0.16 0.15 0.11 0.09 0.09
0.03 0.04 0.04 0.04 0.03 0.02 0.02 0.02 0.05 0.09 0.12 0.18 0.30 0.40 0.35 0.33 0.31 0.28 0.20 0.11 0.07 0.05 0.04 0.03 0.03 0.04 0.03 0.03 0.03 0.05 0.08 0.11 0.11 0.08 0.07 0.07 0.07 0.07 0.06 0.06 0.07 0.07 0.07 0.06
0.02 0.03 0.03 0.03 0.03 0.02 0.01 0.01 0.02 0.06 0.12 0.18 0.26 0.27 0.21 0.17 0.13 0.11 0.07 0.04 0.03 0.02 0.01 0.01 0.01 0.01 0.01 0.01 0.01 0.01 0.00 0.01 0.01 0.01 0.02 0.02 0.02 0.04 0.05 0.06 0.05 0.04 0.03 0.03
0.01 0.02 0.02 0.02 0.02 0.01 0.00 0.00 0.00 0.02 0.04 0.05 0.07 0.06 0.05 0.03 0.03 0.02 0.01 0.01 0.01 0.01 0.00 0.00 0.00 0.00 0.00 0.00 0.00 0.00 0.00 0.00 0.00 0.00 0.01 0.00 0.01 0.01 0.02 0.02 0.02 0.01 0.01 0.02
0.01 0.01 0.01 0.01 0.02 0.02 0.01 0.00 0.00 0.01 0.02 0.01 0.01 0.01 0.01 0.00 0.01 0.01 0.00 0.00 0.00 0.00 0.00 0.00 0.00 0.00 0.00 0.00 0.00 0.00 0.00 0.00 0.00 0.00 0.01 0.00 0.00 0.01 0.01 0.02 0.01 0.01 0.01 0.02
0.00 0.01 0.01 0.01 0.01 0.01 0.00 0.00 0.00 0.00 0.01 0.00 0.00 0.00 0.00 0.00 0.00 0.00 0.00 0.00 0.00 0.00 0.00 0.00 0.00 0.00 0.00 0.00 0.00 0.00 0.00 0.00 0.00 0.00 0.00 0.01 0.01 0.01 0.02 0.03 0.03 0.02 0.02 0.02
0.00 0.00 0.00 0.00 0.00 0.00 0.00 0.00 0.00 0.00 0.00 0.00 0.00 0.00 0.00 0.00 0.00 0.00 0.00 0.00 0.00 0.00 0.00 0.00 0.00 0.00 0.00 0.00 0.00 0.00 0.00 0.00 0.00 0.01 0.01 0.01 0.01 0.01 0.03 0.06 0.04 0.03 0.02 0.02
0.00 0.00 0.00 0.00 0.00 0.00 0.00 0.00 0.00 0.00 0.00 0.00 0.00 0.00 0.00 0.00 0.00 0.00 0.00 0.00 0.00 0.00 0.00 0.00 0.00 0.00 0.00 0.00 0.00 0.00 0.00 0.00 0.00 0.00 0.01 0.01 0.01 0.02 0.03 0.03 0.04 0.03 0.03 0.03
0.00 0.00 0.00 0.00 0.00 0.00 0.00 0.00 0.00 0.00 0.00 0.00 0.00 0.00 0.00 0.00 0.00 0.00 0.00 0.00 0.00 0.00 0.00 0.00 0.00 0.00 0.00 0.00 0.00 0.00 0.00 0.00 0.00 0.00 0.00 0.01 0.01 0.03 0.03 0.02 0.02 0.03 0.03 0.03
0.00 0.00 0.00 0.00 0.00 0.00 0.00 0.00 0.00 0.00 0.00 0.00 0.00 0.00 0.00 0.00 0.00 0.00 0.00 0.00 0.00 0.00 0.00 0.00 0.00 0.00 0.00 0.00 0.00 0.00 0.00 0.00 0.00 0.00 0.00 0.01 0.01 0.03 0.04 0.03 0.03 0.03 0.03 0.03
0.00 0.00 0.00 0.00 0.00 0.00 0.00 0.00 0.00 0.00 0.00 0.00 0.00 0.00 0.00 0.00 0.00 0.00 0.00 0.00 0.00 0.00 0.00 0.00 0.00 0.00 0.00 0.00 0.00 0.00 0.00 0.00 0.00 0.00 0.00 0.01 0.01 0.02 0.03 0.05 0.05 0.04 0.03 0.04